This demonstration page uses our WeatherBlox Daily Observations layout. Learn more.

Left ArrowRight Arrow

36.19886, -115.1175

Hourly Observations for May 30, 2020

Temp ( °F °C ) Dew Point ( °F °C ) Humidity (%) Winds ( mph kmh ) Pressure ( in mb ) Visibility ( mi km ) Precip ( " mm )
12:53 am 00:53 Clear 87 30.6 34 1.1 15 15 SE 8 13 29.78 1009 10 16 N/A
1:53 am 01:53 Clear 87 30.6 34 1.1 15 15 N N/A 29.77 1008 10 16 N/A
2:53 am 02:53 Clear 87 30.6 36 2.2 16 16 N N/A 29.77 1008 10 16 N/A
3:53 am 03:53 Clear 85 29.4 37 2.8 18 18 WSW 3 6 29.77 1008 10 16 N/A
4:53 am 04:53 Clear 85 29.4 38 3.3 19 19 SSW 8 13 29.76 1008 10 16 N/A
5:53 am 05:53 Sunny 83 28.3 39 3.9 21 21 SSE 6 9 29.78 1008 10 16 N/A
6:53 am 06:53 Sunny 85 29.4 40 4.4 20 20 SSW 9 15 29.78 1009 10 16 N/A
7:53 am 07:53 Sunny 88 31.1 42 5.6 20 20 S 8 13 29.79 1009 10 16 N/A
8:53 am 08:53 Sunny 91 32.8 42 5.6 18 18 SSE 12 19 29.79 1009 10 16 N/A
9:53 am 09:53 Sunny 93 33.9 42 5.6 17 17 S 10 17 29.78 1008 10 16 N/A
10:53 am 10:53 Sunny 95 35 42 5.6 16 16 SSE 15 24 29.76 1008 10 16 N/A
11:53 am 11:53 Sunny 97 36.1 40 4.4 14 14 SE 10 17 29.73 1007 10 16 N/A
12:53 pm 12:53 Sunny 101 38.3 30 -1.1 8 8 S 20 31 29.70 1006 10 16 N/A
1:53 pm 13:53 Sunny 100 37.8 28 -2.2 8 8 SSW 24 39 29.68 1005 10 16 N/A
2:53 pm 14:53 Sunny 96 35.6 28 -2.2 9 9 SW 24 39 29.69 1005 10 16 N/A
3:53 pm 15:53 Sunny 96 35.6 26 -3.3 8 8 SSW 17 28 29.70 1006 10 16 N/A
4:53 pm 16:53 Sunny 96 35.6 25 -3.9 8 8 SSW 22 35 29.70 1006 10 16 N/A
5:53 pm 17:53 Sunny 95 35 23 -5 7 7 SSW 17 28 29.68 1005 10 16 N/A
6:53 pm 18:53 Sunny 92 33.3 23 -5 8 8 WSW 15 24 29.69 1006 10 16 N/A
7:53 pm 19:53 Clear 89 31.7 21 -6.1 8 8 WSW 13 20 29.70 1006 10 16 N/A
8:53 pm 20:53 Clear 88 31.1 21 -6.1 8 8 SW 13 20 29.70 1006 10 16 N/A
9:53 pm 21:53 Clear 87 30.6 21 -6.1 9 9 SSW 9 15 29.72 1006 10 16 N/A
10:53 pm 22:53 Clear 85 29.4 23 -5 10 10 S 6 9 29.73 1007 10 16 N/A
11:53 pm 23:53 Clear 84 28.9 25 -3.9 11 11 S 8 13 29.73 1007 10 16 N/A

Powered by AerisWeather